Regional Weather Roundup
Issued by NWS

Home | Current Version | Previous Version | Text Only | Print | Product List | Glossary Off
Versions: 1 2 3 4 5 6 7 8 9 10 11 12 13 14 15 16 17 18 19 20 21 22 23 24 25 26 27 28 29 30 31 32 33 34 35 36 37 38 39 40 41 42 43 44 45 46 47 48 49 50

000
ASUS43 KLOT 272310
RWRIL

ILLINOIS REGIONAL WEATHER ROUNDUP
NATIONAL WEATHER SERVICE CHICAGO/ROMEOVILLE IL
500 PM CST SAT DEC 27 2014

NOTE: "FAIR" INDICATES FEW OR NO CLOUDS BELOW 12,000 FEET WITH NO
SIGNIFICANT WEATHER AND/OR OBSTRUCTIONS TO VISIBILITY.

* THESE STATIONS ARE NOT UNDER NWS QUALITY CONTROL. THEY ALSO MAY NOT
  REPORT WEATHER SUCH AS PRECIPITATION OR FOG.

ILZ001-002-007-009-015-016-024-280000-
NORTHWEST ILLINOIS

CITY           SKY/WX    TMP DP  RH WIND       PRES   REMARKS
MOLINE         CLOUDY    33  24  69 W14       30.13S WCI  23
STERLING*      CLOUDY    34  25  69 NW13      30.12R WCI  25
SAVANNA*       CLOUDY    33  27  77 W8        30.11S WCI  26
$$

ILZ003-004-008-010-011-017-018-280000-
NORTH CENTRAL ILLINOIS

CITY           SKY/WX    TMP DP  RH WIND       PRES   REMARKS
ROCKFORD       CLOUDY    34  25  69 NW13      30.09R WCI  25
FREEPORT*      CLOUDY    32  26  80 W12       30.11R WCI  23
ROCHELLE*      CLOUDY    32  28  83 W14       30.10R WCI  22
DE KALB*       CLOUDY    31  26  80 W18       30.08R WCI  19
PERU*          CLOUDY    33  27  79 W15G24    30.12S WCI  23
$$

ILZ005-006-012>014-019>023-280000-
NORTHEAST ILLINOIS

CITY           SKY/WX    TMP DP  RH WIND       PRES   REMARKS
CHICAGO-OHARE  CLOUDY    34  28  79 W17G25    30.04R WCI  23
CHICAGO-MIDWAY CLOUDY    36  28  73 W21       30.07R WCI  25
AURORA         CLOUDY    34  27  75 W15       30.09R WCI  24
LANSING*       CLOUDY    36  29  76 W20G30    30.07R WCI  25
JOLIET*        CLOUDY    34  27  76 W14G20    30.11R WCI  24
WAUKEGAN       CLOUDY    34  27  75 W9G18     30.02R WCI  27
DUPAGE AIRPORT CLOUDY    34  27  75 W17G24    30.07R WCI  23
KANKAKEE*      CLOUDY    36  32  86 W16       30.10R WCI  26
WHEELING       CLOUDY    35  27  72 W18G25    30.06R WCI  24
MORRIS*        CLOUDY    34  29  83 W17G23    30.11R WCI  23
ROMEOVILLE*    CLOUDY    34  27  77 W14G28    30.10R WCI  24
NORTHERLY ISL    N/A     36  27  70 W17         N/A  WCI  26
$$

LMZ740>746-280000-
SOUTHERN LAKE MICHIGAN

STATION/POSITION SKY/WX   TEMP    WIND        PRES    VSBY  WAVE
                          AIR SEA DIR/SP/G                  HT/PER
                          (F)     (DEG/KT/KT) (MB)    (MI)  (FT/S)
WAUKEGAN HARBOR            35     280/ 22/ 29   N/A
HARRISON CRIB              35     270/ 23/ 32   N/A
BURNHAM HARBOR             36     260/ 15/ 18   N/A
CALUMET HARBOR             36     250/ 12/ 17 1016.5R
MICHIGAN CITY              37     240/ 22/ 26   N/A
$$

ILZ025>027-034>036-040-047-049-050-058-095>099-280000-
WEST-CENTRAL ILLINOIS

CITY           SKY/WX    TMP DP  RH WIND       PRES   REMARKS
QUINCY         CLOUDY    33  26  75 NW10      30.18R WCI  25
GALESBURG*     CLOUDY    32  27  80 NW13G18   30.16S WCI  22
MACOMB*        CLOUDY    33  28  81 NW13      30.19S WCI  23
JACKSONVILLE*  CLOUDY    37  32  81 NW10      30.16R WCI  30
PITTSFIELD*    CLOUDY    37  32  83 NW9       30.18R WCI  30
$$

ILZ028>032-037-038-041>044-048-051>054-059>061-280000-
CENTRAL ILLINOIS

CITY           SKY/WX    TMP DP  RH WIND       PRES   REMARKS
PONTIAC        CLOUDY    36  31  84 W17       30.13R WCI  25
BLOOMINGTON    LGT SNOW  35  32  89 NW14      30.12R FOG     WCI  26
DECATUR        MIX PCPN  36  34  92 NW10      30.13F WCI  28
PEORIA         CLOUDY    35  25  66 NW10      30.14F WCI  27
LACON*         CLOUDY    33  26  74 W13       30.12F WCI  24
LINCOLN*       RAIN      37  33  86 W6        30.14F WCI  32
SPRINGFIELD    LGT SNOW  36  32  85 NW10      30.14F FOG     WCI  28
TAYLORVILLE    LGT RAIN  34  32  93 W6        30.14R WCI  29
$$

ILZ033-039-045-046-055>057-062-063-280000-
EAST-CENTRAL ILLINOIS

CITY           SKY/WX    TMP DP  RH WIND       PRES   REMARKS
CHAMPAIGN      LGT RAIN  36  33  89 W12       30.11R WCI  28
DANVILLE*      RAIN      37  35  93 W12       30.09R WCI  29
RANTOUL*       RAIN      37  35  92 W14       30.11R WCI  28
MATTOON        LGT RAIN  38  36  92 W12       30.11R WCI  30
PARIS*         RAIN      39  38  94 NW12G18   30.12R WCI  32
$$

ILZ079-100>102-280000-
SOUTHWEST ILLINOIS

CITY           SKY/WX    TMP DP  RH WIND       PRES   REMARKS
BELLEVILLE     RAIN      38  38  99 NW14      30.16R WCI  30
CAHOKIA*       RAIN      38  35  89 NW10      30.18R FOG     WCI  31
SPARTA*        DRIZZLE   39  38  95 N5        30.16R
$$

ILZ064>066-069>071-074>076-080>082-084>086-088>090-092>094-280000-
SOUTH-CENTRAL ILLINOIS

CITY           SKY/WX    TMP DP  RH WIND       PRES   REMARKS
CARBONDALE     CLOUDY    43  39  86 N8        30.13R
CAIRO*         DRIZZLE  N/A N/A N/A NW9       30.11S
EFFINGHAM*     DRIZZLE   39  33  80 W9        30.14S WCI  33
MARION         CLOUDY    45  41  87 NW12      30.13S FOG
MT. VERNON     CLOUDY    41  34  75 N3        30.13S
CENTRALIA*     RAIN      39  35  87 NW8       30.13S WCI  33
SALEM*         LGT RAIN  41  38  89 NW7       30.13S
METROPOLIS*    FOG       50  50 100 CALM      30.09F VSB 3/4
$$

ILZ067-068-072-073-078-083-087-091-280000-
SOUTHEAST ILLINOIS

CITY           SKY/WX    TMP DP  RH WIND       PRES   REMARKS
LAWRENCEVILLE  CLOUDY    47  47 100 N9        30.10S
FLORA*         LGT RAIN  42  40  92 NW8       30.13R
FAIRFIELD*     CLOUDY    45  42  91 NW5       30.12R
HARRISBURG*    CLOUDY    45  44  96 NW6       30.12S
ROBINSON*      CLOUDY    44  42  93 NW6       30.11S
CARMI*         DRIZZLE   48  48 100 NW13      30.10R
$$

ABBREVIATIONS USED IN REMARKS
   TC - TEMPERATURE IN CELSIUS
  WCI - WIND CHILL INDEX
   HX - HEAT INDEX
  VSB - VISIBILITY
$$




USA.gov is the U.S. government's official web portal to all federal, state and local government web resources and services.